Location: Bergheim
(50.9593°N, 6.6400°E)
Time: 10:13:13
(UTC+02:00)

ISS - Pass Details

Date: 18 May 2021
Orbit: 417 x 422 km, 51.6° (Epoch: 13 June)

Event Time Altitude Azimuth Distance (km) Brightness Sun altitude
Rises 01:16:05 0° 279° (W) 2,369 0.2 -19.4°
Reaches altitude 10° 01:18:11 10° 280° (W) 1,505 -0.8 -19.4°
Maximum altitude 01:21:34 84° 7° (N) 428 -3.8 -19.5°
Enters shadow 01:22:48 36° 95° (E) 681 -2.8 -19.5°
